EW5980 Weather Reports


Display with metric or nautical units.
time (UTC)temp
F
wind
direction
speed
MPH
gust
MPH
rain 1hr
in
rain 24hr
in
rain mn
in
humidity
%
barometer
mb
20260831210051 95 0.0 0.0 0.00 0.00 0.00 50 1016.4
20260831204549 95 0.0 0.0 0.00 0.00 0.00 48 1016.4
20260831203054 95 0.0 0.0 0.00 0.00 0.00 49 1016.7
20260831201557 95 0.0 0.0 0.00 0.00 0.00 50 1017.0
20260831200047 95 0.0 0.0 0.00 0.00 0.00 50 1017.2
20260831194632 95 0.0 0.0 0.00 0.00 0.00 49 1017.4
20260831193055 96 0.0 0.0 0.00 0.00 0.00 50 1017.6
20260831191552 95 0.0 0.0 0.00 0.00 0.00 49 1017.6
20260831190118 96 0.0 0.0 0.00 0.00 0.00 51 1017.7
20260831184605 96 0.0 0.0 0.00 0.00 0.00 51 1017.9
20260831183058 95 0.0 0.0 0.00 0.00 0.00 50 1018.2
20260831181603 96 0.0 0.0 0.00 0.00 0.00 51 1018.2
20260831180058 94 0.0 0.0 0.00 0.00 0.00 53 1018.3
20260831174553 94 0.0 0.0 0.00 0.00 0.00 54 1018.7
20260831173055 95 0.0 0.0 0.00 0.00 0.00 53 1019.0
20260831171558 94 0.0 0.0 0.00 0.00 0.00 55 1019.2
20260831170058 94 0.0 0.0 0.00 0.00 0.00 56 1019.2
20260831164601 93 0.0 0.0 0.00 0.00 0.00 58 1019.3
20260831163057 93 0.0 0.0 0.00 0.00 0.00 59 1019.4
20260831161556 92 0.0 0.0 0.00 0.00 0.00 60 1019.4
20260831160050 91 0.0 0.0 0.00 0.00 0.00 62 1019.5
20260831154656 92 0.0 0.0 0.00 0.00 0.00 61 1019.5
20260831153052 91 0.0 0.0 0.00 0.00 0.00 62 1019.4
20260831151555 91 0.0 0.0 0.00 0.00 0.00 62 1019.4
20260831150052 90 0.0 0.0 0.00 0.00 0.00 63 1019.4
20260831144546 89 0.0 0.0 0.00 0.00 0.00 64 1019.4
20260831143111 88 0.0 0.0 0.00 0.00 0.00 66 1019.4
20260831141612 86 0.0 0.0 0.00 0.00 0.00 70 1019.4
20260831140047 85 0.0 0.0 0.00 0.00 0.00 74 1019.4
20260831134550 83 0.0 0.0 0.00 0.00 0.00 77 1019.4
20260831133055 82 0.0 0.0 0.00 0.00 0.00 77 1019.2
20260831131559 82 0.0 0.0 0.00 0.00 0.00 77 1019.2
20260831130054 80 0.0 0.0 0.00 0.00 0.00 70 1019.1
20260831124608 77 0.0 0.0 0.00 0.00 0.00 49 1019.1
20260831123054 76 0.0 0.0 0.00 0.00 0.00 48 1018.9
20260831121548 76 0.0 0.0 0.00 0.00 0.00 51 1018.7
20260831120047 75 0.0 0.0 0.00 0.00 0.00 54 1018.5
20260831114558 76 0.0 0.0 0.00 0.00 0.00 57 1018.2
20260831113055 76 0.0 0.0 0.00 0.00 0.00 58 1018.2
20260831111603 76 0.0 0.0 0.00 0.00 0.00 58 1018.0
20260831110059 76 0.0 0.0 0.00 0.00 0.00 61 1017.9
20260831104553 76 0.0 0.0 0.00 0.00 0.00 60 1017.7
20260831103048 76 0.0 0.0 0.00 0.00 0.00 61 1017.6
20260831101614 76 0.0 0.0 0.00 0.00 0.00 64 1017.5
20260831100110 76 0.0 0.0 0.00 0.00 0.00 66 1017.3
20260831094556 76 0.0 0.0 0.00 0.00 0.00 68 1017.1
20260831093054 77 0.0 0.0 0.00 0.00 0.00 70 1017.1
20260831091548 77 0.0 0.0 0.00 0.00 0.00 72 1017.1
20260831090107 77 0.0 0.0 0.00 0.00 0.00 74 1017.0
20260831084545 77 0.0 0.0 0.00 0.00 0.00 74 1017.1
20260831083048 77 0.0 0.0 0.00 0.00 0.00 75 1017.1
20260831081558 77 0.0 0.0 0.00 0.00 0.00 76 1017.1
20260831080059 78 0.0 0.0 0.00 0.00 0.00 77 1017.1
20260831074548 78 0.0 0.0 0.00 0.00 0.00 77 1017.3
20260831073052 78 0.0 0.0 0.00 0.00 0.00 78 1017.2
20260831071555 78 0.0 0.0 0.00 0.00 0.00 78 1017.2
20260831070054 78 0.0 0.0 0.00 0.00 0.00 78 1017.3
20260831064554 79 0.0 0.0 0.00 0.00 0.00 78 1017.5
20260831063059 79 0.0 0.0 0.00 0.00 0.00 78 1017.5
20260831061601 79 0.0 0.0 0.00 0.00 0.00 78 1017.6
20260831060106 79 0.0 0.0 0.00 0.00 0.00 78 1017.7
20260831054550 79 0.0 0.0 0.00 0.00 0.00 78 1017.5
20260831053054 80 0.0 0.0 0.00 0.00 0.00 77 1017.7
20260831051603 80 0.0 0.0 0.00 0.00 0.00 77 1017.4
20260831050059 80 0.0 0.0 0.00 0.00 0.00 76 1017.4
20260831044555 81 0.0 0.0 0.00 0.00 0.00 75 1017.5
20260831043051 81 0.0 0.0 0.00 0.00 0.00 75 1017.4
20260831041601 81 0.0 0.0 0.00 0.00 0.00 75 1017.4
20260831040058 82 0.0 0.0 0.00 0.00 0.00 74 1017.4
20260831034550 82 0.0 0.0 0.00 0.00 0.00 74 1017.2
20260831033055 82 0.0 0.0 0.00 0.00 0.00 73 1017.3
20260831031549 82 0.0 0.0 0.00 0.00 0.00 73 1017.1
20260831030113 83 0.0 0.0 0.00 0.00 0.00 72 1017.0
20260831024631 83 0.0 0.0 0.00 0.00 0.00 71 1017.0
20260831023048 84 0.0 0.0 0.00 0.00 0.00 70 1017.0
20260831021557 85 0.0 0.0 0.00 0.00 0.00 68 1017.0
20260831020058 85 0.0 0.0 0.00 0.00 0.00 68 1016.9
20260831014555 86 0.0 0.0 0.00 0.00 0.00 66 1016.5
20260831013109 86 0.0 0.0 0.00 0.00 0.00 65 1016.4
20260831011554 87 0.0 0.0 0.00 0.00 0.00 64 1016.2
20260831010052 87 0.0 0.0 0.00 0.00 0.00 62 1016.0
20260831004600 88 0.0 0.0 0.00 0.00 0.00 61 1015.8
20260831003057 89 0.0 0.0 0.00 0.00 0.00 59 1015.8
20260831001552 89 0.0 0.0 0.00 0.00 0.00 58 1015.8
20260831000048 90 0.0 0.0 0.00 0.00 0.00 56 1015.8
20260830234547 90 0.0 0.0 0.00 0.00 0.00 55 1015.7
20260830233057 91 0.0 0.0 0.00 0.00 0.00 55 1015.8
20260830231554 91 0.0 0.0 0.00 0.00 0.00 54 1015.9
20260830230049 91 0.0 0.0 0.00 0.00 0.00 53 1015.7
20260830224557 92 0.0 0.0 0.00 0.00 0.00 54 1015.7
20260830223056 92 0.0 0.0 0.00 0.00 0.00 53 1015.7
20260830221552 92 0.0 0.0 0.00 0.00 0.00 53 1015.8
20260830220050 92 0.0 0.0 0.00 0.00 0.00 53 1015.8
20260830214557 92 0.0 0.0 0.00 0.00 0.00 53 1015.9
20260830213046 93 0.0 0.0 0.00 0.00 0.00 52 1015.9
20260830211545 93 0.0 0.0 0.00 0.00 0.00 52 1016.1